Temp
-6 -6 -6 -6 -6 -5 -5 -5 -5 -4 -4 -4 -4 -4 -5 -4 -5 -5 -5 -6 -6 -6 -5 -5 -6 -6 -6 -7 -7 -7 -7 -7 -8 -8 -8 -7 -8 -8 -8 -8 -8 -8 -8 -8 -8 -8 -8 -8 -8
-6 -6 -5 -5 -5 -5 -5 -4 -4 -4 -4 -4 -4 -4 -4 -4 -5 -5 -5 -6 -6 -6 -5 -6 -6 -6 -6 -6 -7 -7 -7 -7 -7 -8 -8 -8 -7 -8 -8 -8 -8 -9 -9 -9 -8 -8 -8 -8 -8
-6 -6 -5 -5 -5 -5 -4 -4 -4 -4 -4 -4 -4 -4 -5 -5 -5 -6 -6 -6 -6 -6 -6 -6 -6 -6 -6 -7 -7 -7 -7 -7 -8 -8 -8 -8 -8 -8 -8 -8 -9 -9 -9 -9 -9 -9 -8 -8 -8
-6 -6 -5 -5 -5 -5 -5 -5 -5 -4 -4 -4 -4 -4 -5 -5 -5 -5 -5 -5 -6 -6 -5 -6 -6 -6 -7 -7 -7 -7 -7 -8 -8 -8 -8 -8 -8 -8 -8 -8 -9 -9 -9 -9 -9 -9 -9 -9 -9
-6 -6 -5 -5 -5 -5 -4 -4 -5 -5 -4 -4 -4 -5 -5 -6 -6 -6 -5 -5 -6 -6 -6 -6 -6 -7 -7 -7 -7 -7 -7 -8 -8 -8 -8 -8 -8 -8 -8 -8 -8 -8 -9 -9 -9 -9 -9 -9 -8
-6 -6 -5 -5 -5 -5 -4 -4 -4 -5 -5 -4 -4 -5 -5 -6 -6 -6 -6 -6 -6 -6 -6 -6 -6 -7 -7 -7 -7 -7 -7 -8 -8 -8 -8 -8 -8 -8 -8 -8 -8 -8 -9 -9 -9 -9 -9 -9 -9
-7 -6 -5 -5 -5 -5 -5 -4 -4 -4 -4 -4 -4 -5 -5 -5 -6 -6 -6 -6 -6 -6 -6 -6 -7 -7 -7 -7 -7 -8 -8 -8 -8 -8 -8 -8 -8 -8 -8 -8 -8 -8 -9 -9 -9 -9 -9 -9 -9
-7 -6 -5 -5 -5 -5 -5 -5 -5 -5 -4 -4 -4 -5 -5 -5 -6 -6 -6 -6 -6 -6 -6 -7 -7 -7 -7 -7 -7 -8 -8 -8 -8 -8 -8 -8 -8 -8 -8 -8 -8 -8 -9 -9 -9 -9 -9 -9 -9
-7 -6 -6 -5 -6 -5 -5 -5 -5 -5 -5 -5 -5 -5 -5 -5 -6 -6 -6 -6 -6 -7 -7 -7 -7 -7 -7 -7 -8 -8 -8 -8 -8 -8 -8 -8 -8 -8 -8 -8 -9 -9 -9 -9 -9 -9 -8 -9 -9
-7 -6 -6 -6 -6 -5 -5 -5 -5 -5 -5 -5 -5 -5 -5 -5 -5 -6 -6 -6 -7 -7 -7 -7 -7 -7 -7 -8 -8 -8 -8 -8 -8 -8 -8 -8 -8 -8 -8 -8 -9 -9 -9 -9 -9 -8 -8 -8 -8
-7 -6 -6 -6 -6 -6 -5 -5 -5 -5 -5 -5 -5 -5 -5 -6 -5 -6 -6 -7 -7 -7 -7 -7 -7 -7 -8 -8 -8 -8 -8 -8 -8 -9 -8 -8 -8 -8 -9 -9 -9 -9 -9 -9 -9 -9 -9 -8 -8
-7 -7 -6 -6 -6 -6 -5 -5 -5 -5 -5 -5 -5 -5 -5 -5 -6 -6 -6 -6 -7 -7 -7 -7 -7 -7 -8 -8 -8 -8 -8 -8 -8 -9 -9 -9 -8 -8 -9 -9 -9 -9 -9 -9 -9 -9 -8 -8 -9
-7 -7 -6 -6 -6 -6 -5 -5 -5 -5 -5 -5 -5 -5 -6 -6 -6 -6 -6 -6 -7 -7 -7 -8 -8 -8 -8 -8 -8 -8 -8 -8 -8 -8 -8 -8 -9 -9 -9 -9 -9 -9 -9 -9 -9 -9 -9 -9 -9
-6 -6 -6 -6 -6 -6 -5 -6 -5 -6 -5 -5 -5 -5 -5 -6 -6 -6 -7 -7 -7 -7 -7 -7 -8 -8 -8 -8 -8 -8 -8 -8 -8 -8 -8 -8 -9 -9 -9 -9 -9 -9 -9 -9 -9 -9 -9 -9 -9
-6 -6 -6 -6 -6 -6 -5 -5 -5 -6 -5 -5 -6 -6 -5 -6 -6 -6 -7 -7 -7 -7 -7 -8 -8 -7 -8 -8 -8 -8 -8 -8 -8 -8 -8 -8 -9 -9 -9 -9 -9 -9 -9 -9 -9 -9 -9 -9 -9
-6 -6 -6 -7 -7 -6 -6 -5 -6 -6 -5 -6 -5 -6 -6 -6 -6 -6 -6 -7 -7 -7 -8 -7 -8 -8 -8 -8 -8 -8 -8 -8 -8 -8 -8 -9 -9 -9 -9 -9 -9 -9 -9 -9 -9 -9 -9 -9 -9
-6 -6 -7 -7 -7 -6 -6 -5 -6 -6 -5 -5 -6 -6 -6 -6 -6 -6 -6 -7 -7 -7 -7 -7 -8 -8 -8 -8 -8 -8 -8 -8 -8 -8 -8 -9 -9 -9 -9 -9 -9 -9 -9 -9 -9 -9 -9 -9 -9
-7 -6 -6 -6 -7 -6 -6 -5 -6 -6 -6 -6 -6 -6 -6 -6 -6 -6 -6 -6 -7 -7 -7 -7 -8 -8 -8 -8 -8 -8 -8 -8 -8 -8 -8 -9 -9 -9 -9 -9 -9 -9 -9 -9 -9 -9 -9 -9 -10
-7 -6 -6 -7 -7 -7 -6 -6 -6 -6 -5 -6 -6 -6 -6 -6 -7 -6 -6 -6 -7 -7 -7 -8 -8 -8 -8 -8 -8 -8 -8 -8 -8 -8 -8 -9 -9 -9 -9 -9 -9 -9 -9 -9 -9 -9 -9 -10 -9
-7 -7 -7 -7 -8 -7 -7 -5 -6 -6 -6 -6 -6 -6 -6 -6 -6 -6 -7 -6 -7 -8 -8 -8 -8 -8 -8 -8 -8 -8 -8 -8 -8 -9 -9 -9 -9 -9 -9 -10 -10 -9 -10 -10 -10 -10 -10 -10 -10
-7 -7 -8 -8 -8 -7 -7 -4 -5 -6 -6 -6 -6 -7 -7 -7 -7 -7 -6 -6 -6 -7 -8 -8 -8 -8 -8 -9 -8 -8 -8 -8 -8 -9 -9 -9 -9 -9 -10 -10 -10 -10 -10 -10 -10 -10 -10 -10 -10
-7 -8 -8 -7 -8 -6 -7 -4 -4 -5 -6 -6 -7 -7 -7 -7 -7 -7 -7 -7 -7 -8 -8 -8 -8 -8 -8 -8 -9 -8 -8 -9 -9 -9 -9 -9 -10 -10 -10 -10 -10 -10 -10 -10 -10 -10 -10 -10 -10
-7 -8 -8 -8 -8 -8 -6 -7 -2 -4 -5 -6 -7 -7 -7 -7 -7 -7 -7 -7 -8 -8 -8 -8 -8 -8 -9 -9 -9 -9 -9 -9 -9 -9 -10 -10 -10 -10 -10 -10 -10 -10 -11 -11 -11 -11 -11 -11 -11
-8 -8 -8 -8 -8 -8 -6 -9 -3 -5 -5 -6 -7 -7 -7 -7 -7 -7 -8 -8 -8 -9 -9 -9 -9 -9 -9 -9 -9 -9 -9 -9 -10 -10 -10 -10 -10 -10 -11 -11 -11 -11 -11 -11 -11 -11 -11 -11 -12
-9 -10 -9 -9 -9 -7 -8 -9 -5 -5 -6 -7 -7 -8 -9 -8 -8 -8 -8 -9 -9 -10 -10 -10 -9 -9 -9 -9 -9 -9 -9 -10 -10 -10 -10 -10 -10 -10 -11 -11 -11 -11 -11 -11 -11 -11 -11 -12 -12
-9 -10 -10 -11 -10 -9 -10 -8 -5 -6 -7 -7 -8 -9 -9 -9 -9 -9 -9 -9 -10 -10 -11 -10 -10 -10 -10 -10 -10 -9 -10 -10 -10 -10 -10 -11 -11 -11 -11 -11 -11 -11 -11 -11 -11 -12 -12 -12 -13
-9 -10 -11 -12 -10 -12 -9 -7 -7 -7 -7 -8 -8 -9 -10 -10 -10 -10 -10 -10 -10 -11 -11 -11 -10 -10 -10 -10 -10 -10 -10 -10 -11 -11 -11 -11 -11 -11 -11 -11 -11 -12 -12 -12 -12 -12 -12 -13 -14
-11 -11 -12 -13 -13 -12 -10 -10 -8 -8 -8 -9 -9 -9 -10 -11 -11 -11 -11 -11 -12 -11 -11 -10 -11 -11 -10 -10 -10 -11 -11 -11 -11 -11 -11 -11 -11 -11 -11 -11 -12 -12 -12 -12 -12 -12 -13 -14 -14
-11 -13 -14 -16 -16 -15 -13 -10 -9 -9 -10 -10 -11 -11 -11 -11 -12 -12 -12 -12 -12 -11 -11 -11 -11 -11 -11 -11 -11 -11 -11 -11 -11 -11 -11 -11 -11 -11 -11 -11 -12 -12 -12 -12 -12 -13 -13 -14 -14
-12 -15 -16 -17 -16 -16 -16 -12 -11 -12 -12 -12 -12 -12 -11 -12 -12 -12 -12 -12 -12 -12 -12 -11 -12 -11 -11 -11 -11 -11 -11 -11 -11 -11 -12 -12 -12 -11 -11 -12 -12 -12 -12 -12 -13 -13 -14 -14 -14
Height
5908 5909 5911 5912 5915 5913 5913 5914 5914 5915 5917 5918 5919 5919 5920 5919 5919 5920 5918 5918 5918 5918 5917 5915 5914 5914 5913 5912 5912 5911 5910 5908 5906 5905 5903 5902 5901 5899 5898 5896 5895 5893 5891 5890 5889 5888 5886 5885 5884
5908 5909 5911 5912 5914 5913 5914 5914 5915 5916 5916 5918 5919 5920 5920 5918 5919 5918 5918 5918 5918 5918 5917 5916 5915 5914 5913 5913 5912 5911 5910 5909 5907 5905 5903 5902 5900 5899 5898 5896 5895 5893 5892 5890 5889 5888 5886 5885 5884
5908 5909 5910 5911 5912 5913 5914 5914 5916 5917 5917 5918 5919 5920 5919 5918 5919 5919 5919 5919 5919 5918 5917 5916 5915 5914 5913 5913 5911 5910 5909 5908 5907 5905 5903 5901 5899 5898 5897 5896 5895 5893 5891 5890 5888 5886 5885 5885 5884
5907 5909 5909 5910 5912 5913 5914 5916 5917 5917 5917 5918 5919 5919 5920 5919 5919 5919 5919 5919 5918 5917 5917 5916 5915 5914 5913 5912 5910 5910 5908 5907 5905 5904 5902 5900 5898 5897 5895 5894 5893 5892 5891 5889 5887 5886 5884 5883 5882
5907 5907 5907 5910 5912 5913 5914 5915 5917 5917 5916 5918 5918 5919 5919 5919 5919 5918 5918 5918 5918 5917 5916 5915 5914 5913 5912 5911 5910 5908 5907 5905 5904 5902 5900 5899 5897 5895 5894 5892 5892 5890 5889 5888 5887 5885 5884 5882 5881
5906 5907 5908 5910 5911 5912 5914 5914 5915 5917 5916 5917 5917 5917 5919 5919 5917 5918 5917 5917 5917 5916 5915 5914 5913 5912 5911 5910 5909 5907 5905 5903 5902 5900 5898 5896 5894 5892 5891 5890 5890 5889 5888 5886 5885 5884 5882 5881 5879
5905 5906 5907 5908 5911 5912 5913 5913 5915 5915 5915 5916 5916 5916 5917 5917 5916 5916 5916 5916 5916 5915 5914 5912 5911 5910 5910 5908 5907 5905 5903 5901 5899 5898 5896 5894 5892 5890 5889 5888 5888 5887 5886 5884 5882 5881 5879 5878 5877
5904 5905 5906 5908 5910 5911 5911 5912 5913 5914 5913 5913 5915 5915 5914 5914 5915 5914 5914 5914 5914 5913 5911 5910 5910 5909 5908 5906 5905 5903 5901 5899 5897 5895 5893 5892 5890 5888 5887 5886 5885 5884 5883 5882 5880 5878 5876 5875 5873
5902 5904 5906 5908 5908 5909 5908 5910 5911 5912 5911 5911 5912 5912 5913 5912 5913 5913 5912 5912 5911 5910 5909 5908 5908 5907 5906 5904 5902 5900 5898 5896 5894 5893 5891 5889 5887 5886 5884 5883 5882 5881 5880 5878 5876 5875 5873 5871 5870
5900 5901 5903 5905 5906 5906 5905 5908 5909 5910 5910 5909 5908 5909 5909 5909 5909 5910 5910 5909 5908 5907 5906 5906 5905 5905 5903 5901 5899 5897 5895 5893 5891 5889 5887 5885 5883 5882 5881 5880 5878 5877 5876 5874 5873 5871 5869 5867 5866
5898 5900 5899 5902 5902 5902 5903 5905 5906 5907 5907 5905 5906 5905 5907 5906 5905 5906 5906 5906 5904 5904 5903 5903 5902 5902 5901 5899 5896 5894 5892 5890 5888 5885 5883 5881 5879 5878 5876 5875 5874 5873 5872 5870 5868 5867 5865 5863 5862
5895 5896 5896 5898 5898 5900 5900 5901 5902 5903 5903 5903 5903 5902 5902 5903 5902 5901 5901 5901 5901 5900 5899 5898 5898 5898 5897 5895 5893 5891 5889 5887 5884 5882 5879 5877 5875 5873 5872 5871 5870 5868 5867 5865 5863 5862 5860 5859 5857
5893 5893 5893 5893 5895 5896 5896 5897 5898 5901 5899 5898 5898 5899 5899 5899 5898 5897 5896 5895 5896 5897 5894 5893 5893 5892 5892 5891 5889 5887 5885 5883 5880 5878 5875 5873 5871 5869 5867 5865 5864 5863 5861 5860 5858 5856 5855 5853 5851
5890 5890 5891 5890 5891 5892 5892 5892 5895 5895 5891 5893 5894 5894 5894 5894 5893 5891 5892 5891 5890 5889 5889 5888 5888 5887 5887 5886 5884 5882 5880 5878 5875 5873 5870 5868 5866 5864 5862 5860 5858 5857 5856 5854 5852 5850 5848 5846 5844
5887 5887 5887 5888 5887 5886 5885 5888 5893 5887 5888 5887 5887 5887 5886 5888 5888 5888 5885 5883 5883 5883 5881 5881 5881 5881 5881 5880 5878 5876 5874 5872 5869 5866 5864 5862 5860 5858 5856 5854 5852 5850 5848 5847 5845 5843 5841 5839 5837
5882 5882 5883 5885 5881 5879 5877 5884 5884 5881 5883 5882 5881 5880 5880 5879 5879 5880 5879 5878 5877 5875 5875 5873 5874 5873 5873 5872 5871 5869 5868 5866 5863 5860 5858 5855 5853 5851 5848 5846 5845 5842 5841 5839 5837 5835 5833 5831 5829
5877 5877 5876 5875 5875 5872 5871 5875 5879 5873 5873 5874 5874 5873 5872 5872 5872 5872 5870 5869 5868 5868 5868 5866 5865 5865 5865 5865 5864 5862 5860 5858 5856 5853 5851 5848 5846 5843 5841 5839 5837 5835 5833 5831 5829 5826 5824 5822 5819
5867 5865 5867 5869 5871 5865 5863 5865 5869 5866 5864 5864 5867 5866 5865 5865 5866 5862 5860 5859 5859 5860 5859 5858 5857 5856 5856 5857 5856 5854 5853 5850 5848 5846 5843 5841 5838 5836 5833 5831 5829 5827 5825 5822 5819 5817 5814 5812 5810
5859 5858 5859 5862 5861 5856 5855 5853 5860 5858 5853 5857 5857 5855 5856 5857 5855 5853 5852 5851 5851 5851 5850 5849 5848 5847 5848 5848 5847 5846 5844 5842 5839 5837 5834 5832 5830 5828 5825 5822 5820 5818 5815 5812 5809 5806 5803 5799 5798
5851 5849 5850 5852 5852 5842 5841 5842 5845 5850 5848 5845 5845 5845 5845 5843 5842 5841 5840 5840 5841 5841 5840 5839 5839 5838 5838 5839 5838 5837 5835 5833 5831 5828 5825 5823 5821 5819 5816 5813 5810 5807 5803 5800 5797 5794 5791 5788 5784
5843 5841 5840 5838 5836 5832 5826 5828 5834 5839 5839 5837 5836 5837 5835 5833 5831 5830 5830 5830 5829 5831 5831 5829 5829 5829 5830 5829 5828 5827 5826 5824 5822 5819 5816 5814 5811 5809 5806 5803 5799 5796 5793 5789 5786 5782 5779 5776 5770
5831 5831 5825 5823 5818 5818 5820 5810 5821 5825 5828 5831 5831 5828 5825 5822 5821 5821 5820 5819 5820 5820 5818 5819 5820 5821 5820 5819 5818 5818 5816 5814 5812 5809 5806 5804 5802 5799 5796 5793 5789 5786 5782 5779 5775 5771 5766 5762 5756
5822 5819 5816 5811 5807 5803 5807 5796 5812 5810 5817 5820 5817 5814 5812 5811 5811 5810 5808 5808 5807 5806 5808 5808 5810 5811 5810 5809 5809 5808 5806 5804 5802 5799 5797 5795 5792 5789 5786 5783 5779 5775 5772 5768 5764 5758 5753 5747 5740
5809 5803 5801 5799 5794 5786 5796 5786 5796 5802 5799 5801 5802 5800 5800 5798 5797 5797 5795 5794 5795 5796 5797 5798 5800 5800 5800 5799 5798 5798 5796 5794 5792 5789 5787 5785 5783 5780 5776 5773 5769 5765 5761 5756 5751 5745 5739 5732 5724
5797 5792 5784 5779 5772 5774 5776 5770 5782 5790 5788 5784 5785 5787 5785 5783 5784 5784 5784 5783 5783 5784 5785 5788 5790 5790 5789 5789 5788 5787 5786 5784 5782 5779 5778 5776 5773 5770 5766 5763 5759 5754 5749 5744 5739 5733 5725 5716 5708
5782 5778 5772 5758 5760 5763 5760 5750 5767 5775 5778 5778 5776 5773 5772 5772 5772 5773 5773 5772 5772 5773 5775 5777 5779 5778 5779 5779 5777 5776 5775 5773 5772 5770 5768 5766 5763 5760 5756 5752 5748 5743 5738 5733 5727 5720 5712 5703 5693
5769 5760 5761 5744 5745 5734 5740 5743 5748 5762 5767 5768 5767 5762 5760 5759 5761 5762 5762 5762 5763 5764 5765 5766 5767 5767 5768 5767 5766 5765 5764 5763 5761 5760 5759 5756 5754 5750 5746 5742 5737 5732 5726 5721 5714 5707 5698 5689 5678
5745 5746 5736 5729 5722 5714 5718 5720 5730 5745 5749 5751 5751 5750 5749 5747 5748 5750 5752 5753 5753 5754 5755 5755 5755 5756 5757 5756 5755 5754 5753 5752 5752 5751 5749 5747 5744 5740 5736 5731 5726 5721 5715 5709 5702 5695 5686 5676 5664
5729 5720 5714 5708 5703 5694 5692 5696 5716 5723 5732 5733 5734 5734 5736 5738 5736 5736 5737 5739 5741 5742 5743 5744 5744 5745 5745 5744 5744 5743 5742 5742 5741 5740 5739 5737 5734 5730 5726 5720 5715 5710 5704 5697 5690 5682 5673 5663 5650
5701 5696 5695 5685 5682 5677 5672 5671 5702 5706 5710 5714 5713 5714 5719 5724 5724 5725 5725 5726 5727 5730 5731 5732 5732 5734 5733 5733 5733 5732 5732 5731 5730 5729 5728 5726 5723 5719 5715 5709 5705 5698 5692 5686 5678 5669 5659 5649 5637
Wind_Speed
13 13 14 15 15 14 10 14 16 14 16 12 12 12 11 7 7 8 9 8 10 6 5 7 12 15 17 18 18 19 20 17 14 15 14 13 13 14 15 15 15 14 13 12 12 12 13 13 15
11 11 13 15 15 13 16 17 15 14 13 11 9 9 8 10 9 6 6 5 5 3 2 5 10 13 15 17 19 21 22 20 17 15 16 16 15 14 14 13 12 12 12 12 12 11 11 12 13
11 10 14 16 14 18 17 17 14 12 12 9 9 8 9 12 8 9 6 6 4 4 4 5 7 11 14 17 20 22 23 21 18 16 16 17 19 17 16 15 15 14 14 13 13 12 12 11 11
10 12 14 16 15 16 14 12 12 12 11 10 9 9 12 14 11 9 9 7 6 6 7 8 9 11 15 19 21 24 24 22 19 17 18 19 20 20 18 15 14 14 16 16 16 15 15 15 12
12 13 13 14 16 15 15 14 13 11 12 10 10 11 13 18 14 11 10 8 7 9 10 10 12 13 17 20 22 24 23 23 21 19 18 19 21 20 18 15 13 14 14 15 15 17 18 19 19
14 14 13 16 17 14 14 14 12 14 14 12 12 12 14 17 16 15 14 11 11 12 13 14 15 15 19 22 23 24 23 24 22 22 23 23 23 22 16 11 11 13 15 16 17 18 19 20 21
17 15 15 18 15 12 13 12 13 14 16 16 15 14 13 16 20 20 17 15 16 17 18 18 17 18 22 24 25 24 25 26 24 23 24 25 23 22 17 13 14 14 15 18 20 21 20 20 19
19 17 18 16 15 15 15 13 13 15 17 17 15 14 15 18 20 22 21 20 20 21 21 21 20 21 24 25 25 25 26 26 25 25 26 27 24 20 15 14 16 17 19 21 21 21 22 22 21
21 19 18 17 15 16 15 15 15 17 19 18 16 16 16 20 23 24 24 25 25 24 24 23 22 22 25 25 25 27 27 26 25 25 27 28 27 20 15 16 17 19 21 21 22 24 25 24 22
22 21 22 20 16 19 20 15 17 18 19 19 20 19 19 21 21 23 27 29 29 28 28 26 24 25 26 24 26 27 27 26 27 27 27 28 28 23 18 19 20 22 22 23 23 25 25 23 22
21 21 25 21 22 23 20 18 18 18 19 22 21 22 19 23 23 25 28 30 31 31 31 29 27 27 25 24 25 27 27 27 27 27 27 29 30 26 21 22 24 25 26 26 26 26 27 24 24
20 23 24 23 23 22 22 22 19 19 21 22 23 23 23 23 27 30 30 30 32 32 33 32 30 26 25 25 25 26 27 28 28 28 29 29 30 28 24 24 26 28 28 28 28 28 28 27 27
21 23 24 25 24 23 23 23 23 18 23 25 27 24 25 27 28 32 33 33 34 33 36 35 31 28 26 25 26 26 27 29 30 30 31 30 30 29 27 27 28 29 31 30 29 29 31 32 32
23 24 26 26 26 24 26 26 24 21 27 27 26 27 28 27 31 33 34 36 37 39 39 38 35 31 28 26 27 28 28 30 32 33 33 32 31 31 29 30 31 32 33 32 31 33 34 35 35
25 26 27 26 29 30 31 29 21 30 29 28 29 30 31 30 30 32 36 38 39 40 41 40 38 33 30 28 28 28 29 30 34 35 34 34 33 32 31 31 33 34 34 33 34 36 37 36 38
28 29 28 25 32 36 37 27 28 34 31 31 33 32 33 32 32 32 35 38 40 41 40 41 39 36 33 30 29 30 30 32 34 37 36 36 34 34 33 33 35 36 35 35 37 39 37 38 38
30 31 32 33 34 39 40 35 30 38 37 36 35 35 36 35 34 33 36 38 40 41 41 43 42 39 37 33 32 33 33 35 36 38 39 37 36 37 36 36 37 37 37 39 41 40 39 39 41
37 40 38 37 34 40 43 40 35 39 42 42 38 38 38 37 34 38 40 41 41 39 39 41 41 41 40 37 36 36 37 38 40 41 40 38 38 39 38 38 37 37 41 42 41 41 41 42 44
40 41 41 38 38 44 45 47 39 40 46 41 39 41 40 38 39 41 41 41 39 38 38 41 42 43 43 41 39 39 40 42 43 43 42 39 39 41 41 39 40 42 43 43 42 42 44 46 48
41 43 42 40 40 50 51 50 47 40 42 44 43 43 42 43 44 44 44 43 40 39 40 42 43 45 44 42 42 42 44 45 46 45 43 40 40 42 42 42 43 43 44 44 44 45 47 49 53
41 43 44 46 47 52 56 53 49 44 43 45 46 43 46 46 47 47 46 46 46 40 40 42 44 44 44 43 44 44 46 46 47 46 43 41 41 43 43 43 44 44 45 45 47 47 50 53 56
48 45 49 51 55 56 54 60 52 48 46 43 42 43 46 48 48 48 47 47 45 40 43 44 43 42 44 45 45 45 47 47 48 44 42 41 42 44 44 44 45 45 45 47 47 50 53 56 60
52 51 53 55 59 61 59 65 55 56 49 43 40 45 46 47 44 45 44 44 44 45 44 44 42 41 46 46 45 46 48 48 46 42 41 41 42 44 45 45 45 46 46 47 50 53 56 58 65
53 57 57 58 62 67 62 63 61 55 55 49 42 42 44 42 42 40 42 43 41 41 41 40 38 41 44 44 45 48 48 47 43 41 41 41 42 44 45 46 46 47 48 49 52 54 58 63 66
55 57 61 65 69 71 66 65 65 58 52 47 41 35 35 38 38 38 38 37 39 40 39 37 37 41 44 45 47 48 46 43 41 41 40 41 42 44 47 47 47 48 49 50 52 55 60 64 67
66 63 66 70 71 69 68 75 67 61 55 49 44 33 35 36 34 33 30 37 40 39 38 33 38 44 44 44 45 45 41 41 40 40 40 41 42 45 48 48 47 48 49 50 53 56 61 64 67
63 69 66 69 74 76 79 77 73 64 56 51 45 43 35 33 28 28 29 32 35 36 32 35 40 39 38 42 43 41 40 40 39 39 39 41 44 46 48 47 47 48 49 51 54 57 61 64 67
68 67 70 72 74 79 83 82 76 66 61 51 48 48 40 32 30 26 28 30 32 33 35 38 40 38 38 40 40 39 39 39 39 39 40 42 44 46 46 47 47 48 50 52 56 58 61 63 67
72 73 69 65 66 75 80 84 75 70 62 58 54 52 46 36 33 29 30 30 32 33 36 39 39 35 37 38 40 39 39 39 39 40 41 42 44 45 45 47 46 49 50 54 56 59 60 63 67
84 80 79 79 80 77 80 88 73 68 61 58 59 56 49 40 37 36 33 34 35 35 38 39 41 38 40 40 41 40 39 39 40 41 41 43 45 44 44 46 47 50 51 53 56 59 60 63 68
Wind_Direction
195 199 201 206 206 203 196 176 161 164 159 145 146 162 172 165 146 130 154 122 108 90 66 56 51 40 40 35 29 19 15 3 356 349 355 352 358 5 12 11 7 9 10 16 23 27 27 31 29
208 211 213 211 212 204 194 176 168 176 173 155 154 163 182 191 178 168 164 153 137 189 310 33 31 26 25 17 14 13 6 2 351 342 339 339 338 345 352 356 356 359 4 2 357 3 19 20 19
215 218 217 213 213 192 191 177 179 185 189 169 176 191 198 215 193 174 191 184 211 251 301 343 354 4 14 7 3 359 356 358 354 342 335 332 333 336 339 342 344 348 352 351 350 351 351 358 1
225 224 221 214 195 193 194 185 190 197 204 194 194 207 207 215 209 206 219 230 251 279 294 309 323 337 358 0 358 351 351 353 349 340 333 330 327 327 327 327 327 336 341 345 344 349 348 347 357
229 234 221 202 193 204 195 196 184 205 218 205 212 217 215 207 214 224 243 249 265 283 292 300 313 333 346 348 347 345 345 345 344 340 331 325 321 320 318 314 321 334 337 341 346 349 348 343 337
232 241 217 192 204 215 203 204 206 199 215 224 229 226 213 214 232 235 241 249 265 275 285 299 308 323 335 334 339 338 338 337 335 331 328 324 324 324 316 310 324 330 334 336 339 339 337 334 333
228 234 213 199 210 224 226 219 218 217 221 227 233 237 237 227 231 242 247 252 263 276 283 295 304 315 325 330 332 333 334 332 329 324 321 321 321 320 312 314 318 320 325 326 326 326 323 324 321
228 230 216 203 220 232 234 230 230 228 231 241 244 245 245 244 241 243 249 256 264 274 283 291 300 309 319 323 324 328 329 327 325 321 319 318 318 314 303 306 305 306 314 318 319 319 319 318 317
227 228 222 219 232 244 241 238 235 231 239 244 252 254 251 249 243 244 249 255 261 270 278 285 291 302 313 316 322 324 324 322 321 319 318 321 322 315 291 295 298 300 308 315 319 322 320 314 309
226 232 227 225 228 240 244 240 237 234 240 246 248 250 251 255 254 254 252 255 261 266 272 278 285 296 306 311 318 320 321 320 320 318 318 321 323 320 294 287 293 297 303 308 314 317 315 308 306
230 235 230 230 229 237 247 247 243 244 243 248 257 263 253 257 262 257 254 254 260 265 271 276 282 294 299 305 313 316 317 317 317 315 316 318 322 318 301 288 290 295 301 304 310 313 314 306 300
236 236 236 237 237 242 245 251 248 251 254 257 257 261 266 260 260 262 258 257 258 265 270 274 283 291 293 300 306 310 311 314 315 313 312 312 317 313 300 287 288 295 299 300 307 307 309 306 302
238 239 240 243 242 244 248 252 253 260 260 258 259 260 262 265 263 259 261 265 263 262 266 274 281 287 287 294 300 304 306 309 310 309 308 307 309 308 300 292 289 292 294 295 301 304 304 302 297
239 243 247 251 254 252 252 254 258 267 264 267 271 267 263 262 261 264 265 264 263 264 268 273 280 281 281 287 293 299 303 306 306 306 305 304 304 306 299 293 290 290 290 291 295 300 303 302 298
246 248 251 259 265 263 259 252 258 257 263 272 274 269 269 268 266 264 263 264 265 267 269 273 275 277 277 282 287 294 302 307 305 304 304 301 300 303 299 292 289 290 290 290 295 299 300 298 297
259 258 261 265 264 266 264 257 266 263 265 266 269 272 271 273 271 269 267 264 265 266 267 269 274 273 273 277 282 289 299 306 306 305 305 301 298 300 296 292 290 291 289 289 292 295 297 296 294
263 265 261 257 261 266 269 267 265 268 268 267 270 273 273 273 274 274 270 266 262 262 266 270 270 271 270 271 277 285 295 302 306 305 304 302 297 297 293 292 291 290 289 289 291 295 296 295 295
262 259 261 264 267 269 269 270 265 267 269 270 273 274 272 271 272 269 267 266 265 264 266 268 268 267 266 268 274 282 291 297 304 305 303 300 295 295 292 291 290 290 291 290 292 296 296 296 296
264 266 266 268 270 269 269 269 266 268 270 274 277 276 275 275 270 269 269 270 270 267 265 265 263 263 265 266 271 279 288 294 300 303 301 298 295 294 293 291 291 293 292 294 295 297 298 296 294
266 268 270 269 269 268 267 266 269 264 273 276 271 273 276 271 268 268 270 271 271 264 262 263 262 263 264 267 270 277 285 291 298 300 298 295 295 293 292 294 295 294 296 297 298 299 297 294 294
269 270 273 272 268 265 268 269 269 267 261 264 270 271 271 273 271 271 271 272 270 267 262 260 261 263 266 268 270 275 281 288 295 296 295 294 294 293 294 297 297 297 299 299 299 297 296 295 296
269 267 267 266 267 268 267 270 268 268 268 270 273 273 269 269 270 272 272 271 272 265 259 260 262 264 265 268 271 274 280 288 292 292 291 293 293 293 297 298 298 300 299 299 298 296 296 297 298
272 271 267 268 268 266 269 268 270 273 271 274 271 270 270 271 272 272 272 269 266 262 261 261 262 262 263 266 270 275 281 287 288 289 289 291 292 296 297 299 300 299 299 298 297 297 298 298 301
272 272 272 270 269 268 269 270 268 271 275 274 275 271 270 271 268 266 267 267 267 263 261 260 258 257 262 266 270 275 282 283 285 285 288 290 294 296 298 300 299 298 298 299 299 300 300 302 306
270 270 270 268 265 270 271 269 274 273 270 270 270 276 274 269 268 266 265 263 261 260 259 258 257 259 262 266 271 275 278 280 281 284 287 291 294 297 299 300 298 297 299 300 300 301 303 306 307
275 272 270 269 272 274 269 267 270 269 267 270 274 272 267 268 269 266 256 258 257 256 259 253 255 258 264 268 270 274 277 278 281 283 287 291 295 298 299 299 297 297 300 301 302 302 306 308 309
272 271 274 270 270 267 270 271 271 272 272 270 267 265 268 264 261 258 252 252 256 253 255 254 258 261 264 267 271 274 274 277 280 283 288 291 296 299 299 297 297 299 300 300 302 305 309 309 313
274 273 269 268 269 269 269 269 269 269 269 268 265 264 260 261 264 253 249 250 249 246 247 252 260 264 265 266 267 270 274 276 279 282 286 290 296 298 297 297 298 300 300 302 304 308 309 311 314
270 267 264 264 264 266 267 264 266 266 267 266 263 262 262 259 254 250 247 243 245 244 248 256 261 261 262 262 266 270 272 273 276 280 284 289 294 297 296 298 300 301 300 303 306 310 310 313 315
269 271 267 264 264 262 264 265 266 267 266 264 261 257 259 261 255 251 252 254 254 248 252 258 261 262 262 263 265 266 269 271 274 278 283 289 294 297 297 299 300 302 302 305 308 309 311 316 318